Miscellaneous Local Product
Issued by NWS Hastings, NE

Home | Current Version | Previous Version | Graphics & Text | Print | Product List | Glossary On
Versions: 1 2 3 4 5 6 7 8 9 10 11 12 13 14 15 16 17 18 19 20 21 22 23 24 25 26 27 28 29 30 31 32 33 34 35 36 37 38 39 40 41 42 43 44 45 46 47 48 49 50
216
AXUS43 KGID 271502
MISGRI

GID CWA HOURLY WEATHER ROUNDUP
NATIONAL WEATHER SERVICE HASTINGS NE
1000 AM CDT SAT MAY 27 2017

NOTE: "FAIR" INDICATES FEW OR NO CLOUDS BELOW 12,000 FEET WITH NO
SIGNIFICANT WEATHER AND/OR OBSTRUCTIONS TO VISIBILITY.

...SOUTH CENTRAL NEBRASKA...

CITY           SKY/WX    TMP DP  RH WIND       PRES   REMARKS
GRAND ISLAND   CLOUDY    63  52  67 E14       29.91R
HASTINGS       MOSUNNY   62  52  69 NE14      29.90S
KEARNEY        MOSUNNY   63  50  63 NE14      29.91R
ORD            PTSUNNY   63  51  65 NE9       29.94R
YORK           CLOUDY    61  52  72 NE10      29.90R
AURORA         CLOUDY    62  51  66 NE10      29.91R
LEXINGTON      SUNNY     64  53  68 NE9       29.93R
HOLDREGE       SUNNY     62  50  65 NE10      29.91R
HEBRON         CLOUDY    60  55  85 E5        29.90R

...NEBRASKA PANHANDLE...

CITY           SKY/WX    TMP DP  RH WIND       PRES   REMARKS
CHADRON        CLOUDY    55  48  77 W7        30.04S
ALLIANCE       CLOUDY    52  46  80 N12       30.03F
SCOTTSBLUFF    CLOUDY    56  44  64 NW12G22   30.06R
SIDNEY         CLOUDY    49  47  93 N13       30.05R

...WESTERN AND NORTH CENTRAL NEBRASKA...

CITY           SKY/WX    TMP DP  RH WIND       PRES   REMARKS
VALENTINE      LGT RAIN  53  49  86 NW6       30.02R FOG
AINSWORTH      CLOUDY    55  51  85 N9        30.00R
ONEILL         CLOUDY    57  53  86 N6        29.97S
BROKEN BOW     MOSUNNY   62  52  69 NE10      29.95R
IMPERIAL       CLOUDY    54  50  86 N13       30.00R
NORTH PLATTE   CLOUDY    65  51  60 E8        29.97R
MCCOOK         SUNNY     63  55  75 NE10      29.94R

...EASTERN NEBRASKA...

CITY           SKY/WX    TMP DP  RH WIND       PRES   REMARKS
NORFOLK        PTSUNNY   63  51  65 NE8       29.93R
SO SIOUX CITY  CLOUDY    61  51  70 NE7       29.92F
TEKAMAH        CLOUDY    62  51  67 E6        29.92S
ALBION         CLOUDY    65  49  57 NE9       29.93R
OMAHA EPPLEY   TSTM      58  53  84 NE7       29.92F
OFFUTT AFB     HVY RAIN  56  53  88 N10       29.89F
MILLARD        RAIN      58  56  92 N3        29.91F
LINCOLN        PTSUNNY   61  54  77 NW10      29.89S
NEBRASKA CITY  CLOUDY    57  57 100 CALM      29.90R
BEATRICE       PTSUNNY   60  55  83 SE9       29.88S
FALLS CITY     CLOUDY    60  59  96 S5        29.90R

...NORTHERN KANSAS...

CITY           SKY/WX    TMP DP  RH WIND       PRES   REMARKS
GOODLAND       CLOUDY    55  53  93 NW20      29.99R
HILL CITY      MOSUNNY   66  58  75 W5        29.90R
NORTON         MOSUNNY   63  54  72 N5        29.89R
PHILLIPSBURG   SUNNY     64  55  72 NE10      29.90R
SMITH CENTER   MOSUNNY   61  55  82 NE3       29.89R
HAYS           CLOUDY    64  57  78 N3        29.88R
RUSSELL        CLOUDY    63  58  83 SE7       29.83R
CONCORDIA      CLOUDY    58  58 100 NE10      29.79F
SALINA         CLOUDY    63  59  87 E12       29.83F
TOPEKA         CLOUDY    64  61  90 E5        29.91R



USA.gov is the U.S. government's official web portal to all federal, state and local government web resources and services.